Regional Weather Roundup
Issued by NWS Sterling, VA

Home | Current Version | Previous Version | Graphics & Text | Print | Product List | Glossary On
Versions: 1 2 3 4 5 6 7 8 9 10 11 12 13 14 15 16 17 18 19 20 21 22 23 24 25 26 27 28 29 30 31 32 33 34 35 36 37 38 39 40 41 42 43 44 45 46 47 48 49 50
000
ASUS41 KLWX 251310
RWRLWX

REGIONAL WEATHER ROUNDUP
NATIONAL WEATHER SERVICE BALTIMORE MD/WASHINGTON DC
900 AM EDT THU AUG 25 2016

Note: "FAIR" indicates few or no clouds below 12,000 feet
with no significant weather and/or obstructions to visibility.
 TC=TEMPERATURE CELSIUS

 * =Non NWS site. Station does not report precipitation (e.g. rain,
    snow, etc.), thunder, or fog.

DCZ001-MDZ009-015-VAZ040>042-051-053>054-251400-
WASHINGTON METRO

CITY           SKY/WX    TMP DP  RH WIND       PRES   REMARKS
WASHINGTON NAT CLOUDY    76  67  73 S9        30.11F
DULLES         PTSUNNY   74  65  73 S8        30.11F
ANDREWS AFB    CLOUDY    75  66  73 S14       30.11F
FT BELVOIR     MOSUNNY   77  66  70 S8        30.11F
LEESBURG*      MOSUNNY   73  70  88 S3        30.12S
GAITHERSBURG*  CLOUDY    73  64  73 SW5       30.15S

$$

MDZ006>007-011-014-251400-
BALTIMORE METRO

CITY           SKY/WX    TMP DP  RH WIND       PRES   REMARKS
BWI AIRPORT    PTSUNNY   74  66  76 VRB3      30.10F
MD SCIENCE CTR   N/A     74  65  73 MISG      30.11F
MARTIN STATE   MOSUNNY   75  70  83 S8        30.12F
ANNAPOLIS      CLOUDY    77  66  68 S8        30.10F

$$

MDZ012-015-019>023-251400-
MARYLAND EASTERN SHORE

CITY           SKY/WX    TMP DP  RH WIND       PRES   REMARKS
OCEAN CITY     SUNNY     78  70  76 W8        30.16S
SALISBURY      SUNNY     74  70  87 S7        30.15S
EASTON*        PTSUNNY   79  73  83 SW10      30.16F

$$

MDZ017>025-251400-
SOUTHERN MARYLAND

CITY           SKY/WX    TMP DP  RH WIND       PRES   REMARKS
PATUXENT RIVER CLOUDY    76  66  71 SW7       30.13F
ST INIGOES     SUNNY     76  69  79 SW10      30.13F
LEONARDTOWN*   NOT AVBL

$$

MDZ003>005-251400-
NORTH CENTRAL MARYLAND

CITY           SKY/WX    TMP DP  RH WIND       PRES   REMARKS
FREDERICK*     SUNNY     73  72  94 SW5       30.13F
HAGERSTOWN APT CLOUDY    75  66  73 S10       30.09F

$$

MDZ501>502-251400-
WESTERN MARYLAND

CITY           SKY/WX    TMP DP  RH WIND       PRES   REMARKS
OAKLAND*       NOT AVBL
CUMBERLAND*    CLOUDY    70  70 100 CALM      30.14S

$$

VAZ025>031-251400-
SHENANDOAH VALLEY

CITY           SKY/WX    TMP DP  RH WIND       PRES   REMARKS
WINCHESTER*    PTSUNNY   77  68  73 SW8       30.11R
FRONT ROYAL*   FAIR      73  68  83 SW6       30.11S
LURAY*         FAIR      75  70  83 SW7       30.14R
NEW MARKET*    CLOUDY   N/A N/A N/A W3        30.14R
STAUNTON*      MOSUNNY   73  68  84 S6        30.18S
WAYNESBORO*    FAIR      75  68  80 CALM      30.17S

$$

WVZ021-048>050-054>055-251400-
EASTERN WEST VIRGINIA PANHANDLE

CITY           SKY/WX    TMP DP  RH WIND       PRES   REMARKS
MARTINSBURG    MOSUNNY   74  69  85 S6        30.09S
PETERSBURG*    RAIN      73  70  91 W3        30.13S

$$

VAZ036>039-050-251400-
CENTRAL FOOTHILLS

CITY           SKY/WX    TMP DP  RH WIND       PRES   REMARKS
CHARLOTTESVILL PTSUNNY   75  68  78 SW3       30.13S
CULPEPER*      MOSUNNY   74  69  85 S3        30.13S
ORANGE*          N/A     72  70  94 S7        30.14S
GORDONSVILLE*  FAIR      73  68  83 S6        30.12F
WARRENTON*     FAIR      75  64  68 SW6       30.12R

$$

VAZ055>057-251400-
NORTH AND CENTRAL PIEDMONT

CITY           SKY/WX    TMP DP  RH WIND       PRES   REMARKS
FREDERICKSBRG* CLOUDY    76  67  73 S6        30.12S
STAFFORD*      MOSUNNY   76  66  73 SW7       30.16S

$$

NCZ024-NYZ072-PAZ021-071-VAZ022-071-251400-
OTHER REGIONAL OBSERVATIONS

CITY           SKY/WX    TMP DP  RH WIND       PRES   REMARKS
NEW YORK CITY    N/A     75  64  69 MISG        N/A
PHILADELPHIA   CLOUDY    75  65  70 S10       30.12F
PITTSBURGH     CLOUDY    74  70  87 SW9       30.09R
ROANOKE        MOSUNNY   76  69  79 SW6       30.19S
RICHMOND       PTSUNNY   77  65  66 SW10      30.15F
RALEIGH        PTSUNNY   75  67  76 S5        30.19F

$$

ANZ530>537-251400-
MARINE OBSERVATIONS

STATION/POSITION TIME  TEMP    WIND        PRES
                       AIR SEA DIR/SP/G
                 (UTC) (F)     (DEG/KT/KT) (MB)
THOMAS PT LIGHT  1300   76 81  200/ 13/ 15 1020.9F
BALT KEY BRIDGE  1248   73     180/  5/  7 1019.3F
COVE POINT       1248   76     240/ 12/ 18 1020.6F
LEWISETTA        1248   76 81  240/ 10/ 13 1020.1F
SOLOMONS ISLAND  1248   77 83  220/  8/ 12   N/A
PINEY POINT      1248          240/ 10/ 14   N/A

$$




USA.gov is the U.S. government's official web portal to all federal, state and local government web resources and services.